Kodiak, AK

8:11 PM AKDT on June 25, 2017 (GMT -0800)
Kodiak

Weather History for PADQ - November, 2012

Change the Weather History Date:

Wednesday, November 7, 2012

  Actual Average Record
Temperature  
Mean Temperature 32 °F 35 °F  
Max Temperature 38 °F 41 °F 54 °F (1946)
Min Temperature 26 °F 30 °F 14 °F (1969)
Degree Days  
Heating Degree Days 33 30  
Month to date heating degree days 206 205  
Since 1 July heating degree days 2220 2067  
Cooling Degree Days 0 0  
Month to date cooling degree days 0 0  
Year to date cooling degree days 0 1  
Moisture  
Dew Point 20 °F    
Average Humidity 0    
Maximum Humidity 0    
Minimum Humidity 0    
Precipitation  
Precipitation 0.00 in 0.22 in 2.40 in (1983)
Month to date precipitation 1.41 1.58  
Year to date precipitation 49.17 63.98  
Snow  
Snow 0.00 in 0.10 in 12.00 in (1941)
Month to date snowfall 0.3 0.8  
Since 1 July snowfall 0.7 1.9  
Since 1 September snowfall 0.7 1.9  
Snow Depth 0.00 in    
Sea Level Pressure  
Sea Level Pressure 30.25 in    
Wind  
Wind Speed 9 mph (WNW)    
Max Wind Speed 21 mph    
Max Gust Speed 26 mph    
Visibility 10 miles    
Events      
T = Trace of Precipitation, MM = Missing Value Source: NWS Daily Summary

Daily Weather History Graph

Daily Weather History Graph

Search for Another Location

Airport or City:

Trip Planner

Search our weather history database for the weather conditions in past years. The results will help you decide how hot, cold, wet, or windy it might be!

Date:

Astronomy

Nov. 07, 2012 Rise Set
Actual Time 8:38 AM AKST 5:07 PM AKST
Civil Twilight 7:55 AM AKST 5:51 PM AKST
Nautical Twilight 7:08 AM AKST 6:38 PM AKST
Astronomical Twilight 6:22 AM AKST 7:23 PM AKST
Moon 12:19 AM AKST (11/7) 2:38 PM AKST (11/7)
Length of Visible Light 9h 55m
Length of Day
8h 29m
Last Quarter, 41% of the Moon is Illuminated
Nov 7
Last Quarter
Nov 13
New
Nov 20
First Quarter
Nov 28
Full
Dec 6
Last Quarter

Hourly Weather History & Observations

Time (AKST) Temp. Windchill Dew Point Humidity Pressure Visibility Wind Dir Wind Speed Gust Speed Precip Events Conditions
12:53 AM 33.1 °F 27.7 °F 18.0 °F 54% 30.14 in 10.0 mi West 5.8 mph - N/A   Clear
1:53 AM 33.1 °F 24.9 °F 18.0 °F 54% 30.14 in 10.0 mi NW 10.4 mph 18.4 mph N/A   Clear
2:53 AM 33.1 °F 24.9 °F 19.0 °F 56% 30.16 in 10.0 mi WNW 10.4 mph - N/A   Clear
3:53 AM 32.0 °F 22.5 °F 19.0 °F 59% 30.17 in 10.0 mi WNW 12.7 mph - N/A   Clear
4:53 AM 33.1 °F 22.2 °F 19.0 °F 56% 30.18 in 10.0 mi NW 17.3 mph - N/A   Clear
5:53 AM 32.0 °F 21.6 °F 19.9 °F 61% 30.18 in 10.0 mi NW 15.0 mph - N/A   Clear
6:53 AM 30.9 °F 19.4 °F 21.9 °F 69% 30.21 in 10.0 mi WNW 17.3 mph 25.3 mph N/A   Clear
7:53 AM 30.9 °F 20.2 °F 21.9 °F 69% 30.24 in 10.0 mi WNW 15.0 mph 19.6 mph N/A   Clear
8:53 AM 30.9 °F 20.7 °F 21.9 °F 69% 30.25 in 10.0 mi WNW 13.8 mph 20.7 mph N/A   Clear
9:53 AM 32.0 °F 20.1 °F 19.9 °F 61% 30.25 in 10.0 mi NW 19.6 mph - N/A   Clear
10:53 AM 33.1 °F 22.6 °F 19.9 °F 59% 30.27 in 10.0 mi NW 16.1 mph - N/A   Clear
11:53 AM 36.0 °F 29.0 °F 19.9 °F 52% 30.29 in 10.0 mi WNW 9.2 mph - N/A   Clear
12:53 PM 37.0 °F 33.3 °F 18.0 °F 46% 30.29 in 10.0 mi NW 4.6 mph - N/A   Clear
1:53 PM 37.9 °F 34.4 °F 21.9 °F 53% 30.29 in 10.0 mi WNW 4.6 mph - N/A   Clear
2:53 PM 35.1 °F 31.0 °F 19.9 °F 54% 30.30 in 10.0 mi NW 4.6 mph - N/A   Mostly Cloudy
3:53 PM 36.0 °F 28.5 °F 19.0 °F 50% 30.29 in 10.0 mi NW 10.4 mph - N/A   Mostly Cloudy
4:53 PM 33.1 °F 30.0 °F 21.0 °F 61% 30.30 in 10.0 mi NW 3.5 mph - N/A   Overcast
5:53 PM 28.0 °F 20.8 °F 21.0 °F 75% 30.30 in 10.0 mi WNW 6.9 mph - N/A   Overcast
6:53 PM 28.0 °F 21.7 °F 19.9 °F 72% 30.31 in 10.0 mi West 5.8 mph - N/A   Overcast
7:53 PM 26.1 °F 18.4 °F 19.9 °F 78% 30.31 in 10.0 mi West 6.9 mph - N/A   Mostly Cloudy
8:53 PM 27.0 °F 20.5 °F 19.9 °F 75% 30.31 in 10.0 mi West 5.8 mph - N/A   Mostly Cloudy
9:53 PM 28.0 °F 24.2 °F 21.0 °F 75% 30.31 in 10.0 mi West 3.5 mph - N/A   Mostly Cloudy
10:53 PM 28.9 °F - 21.9 °F 75% 30.31 in 10.0 mi Calm Calm - N/A   Overcast
11:53 PM 30.9 °F - 21.0 °F 67% 30.30 in 10.0 mi Calm Calm - N/A   Overcast